Ciampino, Italy

2:37 PM CET on February 21, 2017 (GMT +0100)
Ciampino

Weather History for LIRA - December, 2012

Change the Weather History Date:

Friday, December 21, 2012

  Actual Average Record
Temperature  
Mean Temperature 44 °F -  
Max Temperature 48 °F 54 °F 64 °F (2016)
Min Temperature 37 °F 38 °F 30 °F (2007)
Degree Days  
Heating Degree Days 22    
Moisture  
Dew Point 43 °F    
Average Humidity 96    
Maximum Humidity 100    
Minimum Humidity 82    
Precipitation  
Precipitation 0.00 in 0.14 in - ()
Sea Level Pressure  
Sea Level Pressure 29.85 in    
Wind  
Wind Speed 4 mph ()    
Max Wind Speed 9 mph    
Max Gust Speed -    
Visibility 5.8 miles    
Events Rain    
Averages and records for this station are not official NWS values.
T = Trace of Precipitation, MM = Missing Value Source: Averaged Metar Reports

Daily Weather History Graph

Daily Weather History Graph

Search for Another Location

Airport or City:

Trip Planner

Search our weather history database for the weather conditions in past years. The results will help you decide how hot, cold, wet, or windy it might be!

Date:

Astronomy

Dec. 21, 2012 Rise Set
Actual Time 7:33 AM CET 4:42 PM CET
Civil Twilight 7:02 AM CET 5:13 PM CET
Nautical Twilight 6:27 AM CET 5:49 PM CET
Astronomical Twilight 5:53 AM CET 6:22 PM CET
Moon 12:24 PM CET 12:59 AM CET
Length of Visible Light 10h 11m
Length of Day
9h 08m
Waxing Gibbous, 62% of the Moon is Illuminated
Dec 21
Waxing Gibbous
Dec 28
Full
Jan 5
Last Quarter
Jan 11
New
Jan 19
First Quarter

Hourly Weather History & Observations

Time (CET) Temp. Windchill Dew Point Humidity Pressure Visibility Wind Dir Wind Speed Gust Speed Precip Events Conditions
12:15 AM 44.6 °F 43.1 °F 41.0 °F 87% 29.98 in 6.2 mi West 3.5 mph - N/A   Scattered Clouds
12:45 AM 44.6 °F - 42.8 °F 93% 29.95 in 6.2 mi Calm Calm - N/A   Scattered Clouds
1:15 AM 44.6 °F 42.2 °F 41.0 °F 87% 29.95 in 6.2 mi East 4.6 mph - N/A   Scattered Clouds
1:45 AM 44.6 °F - 41.0 °F 87% 29.95 in 6.2 mi Calm Calm - N/A   Scattered Clouds
2:15 AM 44.6 °F - 42.8 °F 93% 29.95 in 6.2 mi ESE 2.3 mph - N/A   Scattered Clouds
2:45 AM 44.6 °F - 42.8 °F 93% 29.92 in 6.2 mi ESE 2.3 mph - N/A   Scattered Clouds
3:15 AM 48.2 °F - 44.6 °F 87% 29.92 in 6.2 mi ESE 5.8 mph - N/A   Scattered Clouds
3:45 AM 48.2 °F - 42.8 °F 82% 29.92 in 6.2 mi SSE 4.6 mph - N/A   Scattered Clouds
4:15 AM 48.2 °F - 42.8 °F 82% 29.89 in 6.2 mi NNE 2.3 mph - N/A Rain Light Rain
4:45 AM 46.4 °F 43.5 °F 42.8 °F 87% 29.89 in 5.0 mi East 5.8 mph - N/A   Scattered Clouds
5:15 AM 46.4 °F 43.5 °F 44.6 °F 93% 29.89 in 5.0 mi ESE 5.8 mph - N/A Rain Light Rain
5:45 AM 46.4 °F 42.4 °F 44.6 °F 93% 29.86 in 5.0 mi East 8.1 mph - N/A Rain Light Rain
6:15 AM 44.6 °F 41.4 °F 42.8 °F 93% 29.83 in 6.2 mi ENE 5.8 mph - N/A Rain Light Rain
6:45 AM 44.6 °F 41.4 °F 42.8 °F 93% 29.83 in 6.2 mi North 5.8 mph - N/A   Scattered Clouds
7:15 AM 46.4 °F - 44.6 °F 93% 29.80 in 6.2 mi ESE 2.3 mph - N/A   Overcast
7:45 AM 46.4 °F 43.5 °F 44.6 °F 93% 29.80 in 6.2 mi NW 5.8 mph - N/A   Light Drizzle
8:15 AM 46.4 °F - 44.6 °F 93% 29.80 in 6.2 mi SSW 2.3 mph - N/A   Light Drizzle
8:45 AM 46.4 °F 45.2 °F 44.6 °F 93% 29.80 in 6.2 mi North 3.5 mph - N/A   Light Drizzle
9:15 AM 46.4 °F - 44.6 °F 93% 29.80 in 6.2 mi NNW 2.3 mph - N/A   Overcast
9:45 AM 46.4 °F 44.3 °F 44.6 °F 93% 29.80 in 6.2 mi NE 4.6 mph - N/A   Overcast
10:15 AM 46.4 °F 43.5 °F 44.6 °F 93% 29.80 in 6.2 mi NE 5.8 mph - N/A   Overcast
10:45 AM 46.4 °F 41.9 °F 44.6 °F 93% 29.83 in 6.2 mi NNE 9.2 mph - N/A   Overcast
11:15 AM 44.6 °F 40.7 °F 44.6 °F 100% 29.83 in 5.0 mi NNE 6.9 mph - N/A   Light Drizzle
11:45 AM 44.6 °F 40.2 °F 44.6 °F 100% 29.83 in 5.0 mi NNE 8.1 mph - N/A   Overcast
12:15 PM 44.6 °F 40.7 °F 44.6 °F 100% 29.83 in 6.2 mi NNE 6.9 mph - N/A   Overcast
12:45 PM 44.6 °F 40.7 °F 44.6 °F 100% 29.80 in 6.2 mi NNE 6.9 mph - N/A   Mostly Cloudy
1:15 PM 44.6 °F 40.7 °F 44.6 °F 100% 29.80 in 6.2 mi NNE 6.9 mph - N/A   Mostly Cloudy
1:45 PM 44.6 °F 40.7 °F 44.6 °F 100% 29.80 in 6.2 mi NNE 6.9 mph - N/A   Mostly Cloudy
2:15 PM 44.6 °F 40.2 °F 44.6 °F 100% 29.80 in 6.2 mi NNE 8.1 mph - N/A   Mostly Cloudy
2:45 PM 46.4 °F 42.4 °F 46.4 °F 100% 29.80 in 6.2 mi North 8.1 mph - N/A   Mostly Cloudy
3:15 PM 46.4 °F 42.9 °F 46.4 °F 100% 29.80 in 5.0 mi North 6.9 mph - N/A   Mostly Cloudy
3:45 PM 44.6 °F 41.4 °F 44.6 °F 100% 29.80 in 5.0 mi NNE 5.8 mph - N/A   Mostly Cloudy
4:15 PM 44.6 °F - 44.6 °F 100% 29.80 in 6.2 mi North 2.3 mph - N/A   Scattered Clouds
4:45 PM 44.6 °F 40.2 °F 44.6 °F 100% 29.83 in 5.0 mi North 8.1 mph - N/A   Mostly Cloudy
5:15 PM 44.6 °F 42.2 °F 44.6 °F 100% 29.83 in 5.0 mi NNE 4.6 mph - N/A   Scattered Clouds
5:45 PM 42.8 °F 39.3 °F 42.8 °F 100% 29.83 in 5.0 mi NNE 5.8 mph - N/A   Scattered Clouds
6:15 PM 41.0 °F 38.0 °F 41.0 °F 100% 29.83 in 5.0 mi NNE 4.6 mph - N/A   Scattered Clouds
6:45 PM 41.0 °F 37.1 °F 41.0 °F 100% 29.83 in 5.6 mi NNE 5.8 mph - N/A   Scattered Clouds
7:15 PM 42.8 °F 41.1 °F 42.8 °F 100% 29.83 in 5.6 mi NNE 3.5 mph - N/A   Scattered Clouds
7:45 PM 42.8 °F 41.1 °F 42.8 °F 100% 29.83 in 5.6 mi North 3.5 mph - N/A   Scattered Clouds
8:15 PM 42.8 °F 39.3 °F 42.8 °F 100% 29.83 in 5.6 mi North 5.8 mph - N/A   Scattered Clouds
9:15 PM 41.0 °F 38.0 °F 41.0 °F 100% 29.83 in 5.6 mi NNE 4.6 mph - N/A   Scattered Clouds
9:45 PM 41.0 °F 37.1 °F 41.0 °F 100% 29.86 in 5.6 mi NNE 5.8 mph - N/A   Scattered Clouds
10:15 PM 39.2 °F 37.0 °F 39.2 °F 100% 29.86 in 5.6 mi NE 3.5 mph - N/A   Scattered Clouds
10:45 PM 39.2 °F 37.0 °F 39.2 °F 100% 29.86 in 5.6 mi NNE 3.5 mph - N/A   Scattered Clouds
11:15 PM 39.2 °F 37.0 °F 39.2 °F 100% 29.86 in 5.6 mi North 3.5 mph - N/A   Partly Cloudy
11:45 PM 37.4 °F 33.8 °F 37.4 °F 100% 29.89 in 5.0 mi NNE 4.6 mph - N/A   Scattered Clouds